Weather History for Jackson, MI

Change the Weather History Date:

Sunday, June 23, 2013

  Actual Average Record
Temperature  
Mean Temperature 78 °F 70 °F  
Max Temperature 88 °F 81 °F 92 °F (1964)
Min Temperature 67 °F 58 °F 45 °F (1963)
Degree Days  
Heating Degree Days 0 1  
Month to date heating degree days 57 49  
Since 1 June heating degree days 57 49  
Since 1 July heating degree days 6561 6651  
Cooling Degree Days 13 5  
Month to date cooling degree days 67 84  
Year to date cooling degree days 134 121  
Since 1 June cooling degree days 67 84  
Growing Degree Days 28 (Base 50)    
Moisture  
Dew Point 65 °F    
Average Humidity 67    
Maximum Humidity 87    
Minimum Humidity 46    
Precipitation  
Precipitation 0.00 in 0.11 in 1.26 in (1968)
Month to date precipitation 2.70 2.51  
Year to date precipitation 15.32 13.11  
Sea Level Pressure  
Sea Level Pressure 30.03 in    
Wind  
Wind Speed 8 mph (SW)    
Max Wind Speed 17 mph    
Max Gust Speed 24 mph    
Visibility 10 miles    
Events      
T = Trace of Precipitation, MM = Missing Value Source: NWS Daily Summary

Daily Weather History Graph

Daily Weather History Graph

Search for Another Location

Airport:

Trip Planner

Search our weather history database for the weather conditions in past years. The results will help you decide how hot, cold, wet, or windy it might be!

Date:

Astronomy

Jun. 23, 2013 Rise Set
Actual Time 6:02 AM EDT 9:18 PM EDT
Civil Twilight 5:27 AM EDT 9:52 PM EDT
Nautical Twilight 4:42 AM EDT 10:37 PM EDT
Astronomical Twilight 3:47 AM EDT 11:32 PM EDT
Moon 9:27 PM EDT (6/23) 6:19 AM EDT (6/23)
Length of Visible Light 16h 25m
Length of Day
15h 16m
Full, 100% of the Moon is Illuminated
Jun 23
Full
Jun 30
Last Quarter
Jul 8
New
Jul 15
First Quarter
Jul 22
Full

Hourly Weather History & Observations

Time (EDT) Temp. Heat Index Dew Point Humidity Pressure Visibility Wind Dir Wind Speed Gust Speed Precip Events Conditions
12:56 AM 73.9 °F - 68.0 °F 82% 30.05 in 10.0 mi SW 5.8 mph - N/A   Clear
1:56 AM 72.0 °F - 66.0 °F 81% 30.04 in 10.0 mi SW 5.8 mph - N/A   Clear
2:56 AM 71.1 °F - 66.0 °F 84% 30.04 in 10.0 mi SW 8.1 mph - N/A   Clear
3:56 AM 71.1 °F - 64.9 °F 81% 30.03 in 10.0 mi West 4.6 mph - N/A   Clear
4:56 AM 69.1 °F - 64.9 °F 87% 30.04 in 10.0 mi West 4.6 mph - N/A   Clear
5:56 AM 68.0 °F - 64.0 °F 87% 30.05 in 10.0 mi SSW 4.6 mph - N/A   Clear
6:56 AM 69.1 °F - 64.0 °F 84% 30.07 in 10.0 mi SW 6.9 mph - N/A   Clear
7:56 AM 70.0 °F - 64.0 °F 81% 30.07 in 10.0 mi SSW 8.1 mph - N/A   Clear
8:56 AM 73.0 °F - 64.9 °F 76% 30.08 in 10.0 mi SW 6.9 mph - N/A   Clear
9:56 AM 78.1 °F - 64.9 °F 64% 30.06 in 10.0 mi South 11.5 mph - N/A   Clear
10:56 AM 81.0 °F 82.5 °F 64.0 °F 56% 30.05 in 10.0 mi SW 12.7 mph - N/A   Clear
11:56 AM 82.0 °F 84.1 °F 66.0 °F 58% 30.05 in 10.0 mi SSW 15.0 mph 18.4 mph N/A   Clear
12:56 PM 84.9 °F 86.6 °F 64.9 °F 51% 30.05 in 10.0 mi SW 8.1 mph 17.3 mph N/A   Clear
1:56 PM 86.0 °F 87.3 °F 64.0 °F 48% 30.04 in 10.0 mi SW 9.2 mph - N/A   Clear
2:56 PM 87.1 °F 88.9 °F 64.9 °F 48% 30.03 in 10.0 mi SSW 13.8 mph 18.4 mph N/A   Clear
3:56 PM 88.0 °F 89.6 °F 64.9 °F 46% 30.02 in 10.0 mi SSW 11.5 mph 17.3 mph N/A   Clear
4:56 PM 88.0 °F 89.3 °F 64.0 °F 45% 30.00 in 10.0 mi SSW 13.8 mph 19.6 mph N/A   Clear
5:56 PM 87.1 °F 89.2 °F 66.0 °F 49% 29.99 in 10.0 mi SW 6.9 mph - N/A   Clear
6:56 PM 84.9 °F 87.1 °F 66.0 °F 53% 29.99 in 10.0 mi SSW 8.1 mph - N/A   Partly Cloudy
7:56 PM 82.0 °F 84.5 °F 66.9 °F 60% 29.99 in 10.0 mi WSW 5.8 mph - N/A   Clear
8:56 PM 79.0 °F - 66.0 °F 64% 30.00 in 10.0 mi SSW 3.5 mph - N/A   Clear
9:56 PM 77.0 °F - 64.9 °F 66% 30.01 in 10.0 mi South 6.9 mph - N/A   Clear
10:56 PM 77.0 °F - 64.9 °F 66% 30.01 in 10.0 mi South 10.4 mph - N/A   Clear
11:56 PM 73.0 °F - 64.9 °F 76% 30.00 in 10.0 mi Calm Calm - N/A   Clear